{"data":{"norad_id":66771,"intl_designator":"2025-276DK","name":"GYEONGGISAT-1","alt_names":[],"object_type":"PAYLOAD","status":"ACTIVE","operator":null,"country":"SKOR","launch_date":"2025-11-28","launch_site_code":"AFWTR","launch_vehicle":null,"mission":null,"orbit_class":"UNKNOWN","rcs_meters":null,"size_class":null,"mass_kg":null,"dimensions":null,"purposes":[],"wikipedia_slug":null,"has_3d_model":false,"image_url":null,"decayed_at":null,"tle_current":{"epoch":"2026-09-20T11:03:05.075424Z","epoch_age_seconds":121273,"freshness":"FRESH","line1":"1 66771U 25276DK  26263.46047541  .00003522  00000+0  15908-3 0  9996","line2":"2 66771  97.4153 335.9869 0000267 172.4338 187.6902 15.21615164 44928","mean_motion":15.21615164,"eccentricity":2.67e-5,"inclination_deg":97.4153,"raan_deg":335.9869,"arg_perigee_deg":172.4338,"mean_anomaly_deg":187.6902,"bstar":0.00015908,"rev_number":4492,"period_min":94.636280846108,"perigee_km":500.78460988519,"apogee_km":501.15195410725,"semimajor_km":6879.1052819962,"source":"CELESTRAK","updated_at":"2026-09-21T09:00:16.186185Z"}}}